Weather History for Boone, IA

Change the Weather History Date:

Thursday, March 28, 2013

  Actual Average Record
Temperature  
Mean Temperature 40 °F -  
Max Temperature 52 °F 55 °F 80 °F (1968)
Min Temperature 28 °F 31 °F 7 °F (1970)
Degree Days  
Heating Degree Days 25    
Moisture  
Dew Point 31 °F    
Average Humidity 74    
Maximum Humidity 89    
Minimum Humidity 50    
Precipitation  
Precipitation 0.00 in - - ()
Sea Level Pressure  
Sea Level Pressure 30.27 in    
Wind  
Wind Speed 7 mph (ESE)    
Max Wind Speed 12 mph    
Max Gust Speed 17 mph    
Visibility 10 miles    
Events      
Averages and records for this station are not official NWS values.
T = Trace of Precipitation, MM = Missing Value Source: NWS Daily Summary

Daily Weather History Graph

Daily Weather History Graph

Search for Another Location

Airport:

Trip Planner

Search our weather history database for the weather conditions in past years. The results will help you decide how hot, cold, wet, or windy it might be!

Date:

Astronomy

Mar. 28, 2013 Rise Set
Actual Time 7:04 AM CDT 7:36 PM CDT
Civil Twilight 6:36 AM CDT 8:05 PM CDT
Nautical Twilight 6:03 AM CDT 8:38 PM CDT
Astronomical Twilight 5:29 AM CDT 9:12 PM CDT
Moon 9:32 PM CDT (3/28) 7:30 AM CDT (3/28)
Length of Visible Light 13h 28m
Length of Day
12h 32m
Full, 98% of the Moon is Illuminated
Mar 28
Full
Apr 2
Last Quarter
Apr 10
New
Apr 18
First Quarter
Apr 25
Full

Hourly Weather History & Observations

Time (CDT) Temp. Windchill Dew Point Humidity Pressure Visibility Wind Dir Wind Speed Gust Speed Precip Events Conditions
12:15 AM 30.7 °F 24.9 °F 26.2 °F 83% 30.30 in 10.0 mi East 5.8 mph - N/A   Clear
12:35 AM 30.7 °F 27.3 °F 26.6 °F 85% 30.30 in 10.0 mi ENE 3.5 mph - N/A   Clear
12:55 AM 31.1 °F 27.7 °F 26.2 °F 82% 30.31 in 10.0 mi ENE 3.5 mph - N/A   Clear
1:15 AM 31.1 °F 27.7 °F 26.6 °F 83% 30.31 in 10.0 mi ENE 3.5 mph - N/A   Clear
1:35 AM 30.6 °F 25.8 °F 26.4 °F 85% 30.31 in 10.0 mi ENE 4.6 mph - N/A   Clear
1:55 AM 30.0 °F 23.2 °F 26.2 °F 86% 30.31 in 10.0 mi East 6.9 mph - N/A   Clear
2:35 AM 29.8 °F 23.9 °F 26.1 °F 86% 30.30 in 10.0 mi East 5.8 mph - N/A   Clear
2:55 AM 30.0 °F 23.2 °F 25.7 °F 84% 30.29 in 10.0 mi East 6.9 mph - N/A   Clear
3:15 AM 30.2 °F 23.4 °F 26.1 °F 85% 30.29 in 10.0 mi East 6.9 mph - N/A   Clear
3:35 AM 29.5 °F 24.5 °F 25.5 °F 85% 30.29 in 10.0 mi East 4.6 mph - N/A   Clear
3:55 AM 29.3 °F 21.5 °F 25.9 °F 87% 30.28 in 10.0 mi East 8.1 mph - N/A   Clear
4:15 AM 29.8 °F 22.2 °F 25.9 °F 85% 30.28 in 10.0 mi East 8.1 mph - N/A   Clear
4:35 AM 29.3 °F 25.6 °F 25.7 °F 86% 30.28 in 10.0 mi East 3.5 mph - N/A   Clear
4:55 AM 29.3 °F 24.3 °F 25.5 °F 86% 30.28 in 10.0 mi East 4.6 mph - N/A   Clear
5:15 AM 28.4 °F 22.2 °F 25.3 °F 88% 30.28 in 10.0 mi East 5.8 mph - N/A   Clear
5:35 AM 28.9 °F 22.8 °F 25.3 °F 86% 30.28 in 10.0 mi East 5.8 mph - N/A   Clear
5:55 AM 28.9 °F 23.9 °F 25.5 °F 87% 30.28 in 10.0 mi ESE 4.6 mph - N/A   Clear
6:15 AM 28.2 °F 23.1 °F 25.0 °F 88% 30.29 in 10.0 mi East 4.6 mph - N/A   Scattered Clouds
6:35 AM 28.0 °F 21.7 °F 25.0 °F 88% 30.28 in 10.0 mi East 5.8 mph - N/A   Mostly Cloudy
6:55 AM 28.4 °F 23.3 °F 25.5 °F 89% 30.29 in 10.0 mi ESE 4.6 mph - N/A   Overcast
7:15 AM 29.1 °F 22.1 °F 25.7 °F 87% 30.29 in 10.0 mi ESE 6.9 mph - N/A   Overcast
7:35 AM 29.3 °F 22.3 °F 26.2 °F 88% 30.29 in 10.0 mi ESE 6.9 mph - N/A   Scattered Clouds
7:55 AM 30.6 °F 24.7 °F 27.3 °F 88% 30.30 in 10.0 mi ESE 5.8 mph - N/A   Clear
8:15 AM 31.6 °F 23.7 °F 27.7 °F 85% 30.29 in 10.0 mi ESE 9.2 mph - N/A   Scattered Clouds
8:35 AM 32.0 °F 24.8 °F 28.4 °F 87% 30.30 in 10.0 mi SE 8.1 mph - N/A   Clear
8:55 AM 32.9 °F 25.3 °F 28.9 °F 85% 30.30 in 10.0 mi ESE 9.2 mph - N/A   Mostly Cloudy
9:15 AM 34.0 °F 28.0 °F 29.8 °F 85% 30.31 in 10.0 mi SE 6.9 mph - N/A   Overcast
9:35 AM 34.7 °F 27.5 °F 29.8 °F 82% 30.31 in 10.0 mi SE 9.2 mph - N/A   Scattered Clouds
9:55 AM 36.0 °F 29.6 °F 30.0 °F 79% 30.31 in 10.0 mi SE 8.1 mph - N/A   Scattered Clouds
10:15 AM 37.9 °F 31.5 °F 30.9 °F 76% 30.31 in 10.0 mi ESE 9.2 mph - N/A   Scattered Clouds
10:35 AM 39.4 °F 33.2 °F 31.6 °F 74% 30.31 in 10.0 mi SE 9.2 mph - N/A   Clear
10:55 AM 40.1 °F 34.1 °F 31.6 °F 72% 30.31 in 10.0 mi SE 9.2 mph - N/A   Scattered Clouds
11:15 AM 41.2 °F 35.5 °F 31.6 °F 69% 30.31 in 10.0 mi ESE 9.2 mph - N/A   Mostly Cloudy
11:35 AM 42.8 °F 36.6 °F 32.4 °F 67% 30.31 in 10.0 mi SE 11.5 mph - N/A   Scattered Clouds
11:55 AM 43.0 °F 36.8 °F 32.4 °F 66% 30.31 in 10.0 mi ESE 11.5 mph - N/A   Clear
12:15 PM 43.9 °F 37.9 °F 32.9 °F 65% 30.31 in 10.0 mi SE 11.5 mph 16.1 mph N/A   Scattered Clouds
12:35 PM 45.9 °F 40.8 °F 33.6 °F 62% 30.30 in 10.0 mi ESE 10.4 mph - N/A   Scattered Clouds
12:55 PM 46.4 °F 41.5 °F 34.3 °F 63% 30.29 in 10.0 mi ESE 10.4 mph - N/A   Scattered Clouds
1:15 PM 47.5 °F - 34.0 °F 59% 30.28 in 10.0 mi ESE 11.5 mph - N/A   Scattered Clouds
1:35 PM 48.4 °F - 34.5 °F 59% 30.28 in 10.0 mi ESE 9.2 mph 17.3 mph N/A   Clear
1:55 PM 48.7 °F - 36.0 °F 61% 30.27 in 10.0 mi SE 9.2 mph - N/A   Clear
2:15 PM 49.6 °F - 36.3 °F 60% 30.26 in 10.0 mi SE 6.9 mph - N/A   Clear
2:35 PM 50.2 °F - 35.8 °F 58% 30.25 in 10.0 mi ESE 10.4 mph - N/A   Clear
2:55 PM 50.5 °F - 36.1 °F 58% 30.25 in 10.0 mi SE 8.1 mph - N/A   Clear
3:15 PM 50.5 °F - 34.9 °F 55% 30.24 in 10.0 mi ESE 8.1 mph - N/A   Clear
3:35 PM 51.3 °F - 35.1 °F 54% 30.23 in 10.0 mi ESE 6.9 mph - N/A   Clear
3:55 PM 51.3 °F - 34.9 °F 54% 30.23 in 10.0 mi ESE 9.2 mph - N/A   Clear
4:15 PM 52.0 °F - 35.4 °F 53% 30.23 in 10.0 mi SSE 6.9 mph - N/A   Clear
4:35 PM 51.8 °F - 34.9 °F 53% 30.23 in 10.0 mi ESE 6.9 mph - N/A   Clear
4:55 PM 52.0 °F - 34.2 °F 51% 30.23 in 10.0 mi ESE 8.1 mph - N/A   Clear
5:15 PM 51.6 °F - 33.3 °F 50% 30.23 in 10.0 mi East 5.8 mph - N/A   Clear
5:35 PM 51.8 °F - 34.0 °F 51% 30.23 in 10.0 mi SE 8.1 mph - N/A   Clear
5:55 PM 51.4 °F - 34.0 °F 51% 30.23 in 10.0 mi ESE 6.9 mph - N/A   Scattered Clouds
6:15 PM 51.4 °F - 34.2 °F 52% 30.23 in 10.0 mi ESE 6.9 mph - N/A   Scattered Clouds
6:35 PM 49.8 °F - 35.2 °F 57% 30.23 in 10.0 mi ESE 6.9 mph - N/A   Scattered Clouds
6:55 PM 47.8 °F - 35.8 °F 63% 30.23 in 10.0 mi East 5.8 mph - N/A   Clear
7:15 PM 46.2 °F 41.7 °F 36.5 °F 69% 30.23 in 10.0 mi ENE 9.2 mph - N/A   Scattered Clouds
7:35 PM 43.7 °F 39.1 °F 36.3 °F 75% 30.24 in 10.0 mi ENE 8.1 mph - N/A   Mostly Cloudy
7:55 PM 41.7 °F 36.7 °F 35.6 °F 79% 30.24 in 10.0 mi East 8.1 mph - N/A   Overcast
8:15 PM 41.0 °F 36.4 °F 34.7 °F 78% 30.24 in 10.0 mi East 6.9 mph - N/A   Mostly Cloudy
8:35 PM 43.3 °F 38.1 °F 34.7 °F 72% 30.24 in 10.0 mi East 9.2 mph - N/A   Mostly Cloudy
8:55 PM 39.7 °F 34.9 °F 34.0 °F 80% 30.25 in 10.0 mi East 6.9 mph - N/A   Scattered Clouds
9:15 PM 38.3 °F 34.8 °F 32.9 °F 81% 30.26 in 10.0 mi East 4.6 mph - N/A   Clear
9:35 PM 38.3 °F 33.2 °F 32.4 °F 79% 30.26 in 10.0 mi East 6.9 mph - N/A   Clear
9:55 PM 36.5 °F 32.7 °F 32.0 °F 84% 30.26 in 10.0 mi East 4.6 mph - N/A   Mostly Cloudy
10:15 PM 36.7 °F 30.5 °F 32.2 °F 84% 30.26 in 10.0 mi East 8.1 mph - N/A   Overcast
10:35 PM 37.4 °F 30.8 °F 32.0 °F 81% 30.26 in 10.0 mi East 9.2 mph - N/A   Overcast
10:55 PM 36.7 °F 30.5 °F 32.0 °F 83% 30.26 in 10.0 mi East 8.1 mph - N/A   Overcast
11:15 PM 36.7 °F 30.5 °F 32.0 °F 83% 30.26 in 10.0 mi East 8.1 mph - N/A   Overcast
11:35 PM 36.5 °F 31.0 °F 31.8 °F 83% 30.26 in 10.0 mi East 6.9 mph - N/A   Overcast
11:55 PM 34.9 °F 29.9 °F 30.7 °F 85% 30.26 in 10.0 mi East 5.8 mph - N/A   Scattered Clouds